Station 41083 - OOI Pioneer - Mid-Atlantic Bight Southern Surface Mooring Image indicating link to RSS feed of recent meteorological observations for station 41083


Conditions at 41083 as of
(9:00 pm EDT on 08/31/2026)
0100 GMT on 09/01/2026:
     

Click on the graph icon in the table below to see a time series plot of the last five days of that observation.

5-day plot - Wind Speed Wind Speed (WSPD): 0.0 kts
5-day plot - Atmospheric Pressure Atmospheric Pressure (PRES):30.09 in
5-day plot - Pressure Tendency Pressure Tendency (PTDY):-0.01 in ( Falling )
5-day plot - Air Temperature Air Temperature (ATMP): 80.8 °F
5-day plot - Salinity Salinity (SAL): 33.27 psu
5-day plot - Wind Speed at 10 Meters Wind Speed at 10 meters (WSPD10M): 0.0 kts
5-day plot - Wind Speed at 20 Meters Wind Speed at 20 meters (WSPD20M): 1.9 kts
5-day plot -  Wind Speed, Wind Gust and Atmospheric Pressure Combined plot of Wind Speed, Gust, and Air Pressure
Previous observations
TIME
(EDT)
5-day plot - Wind Direction
WDIR
 
5-day plot - Wind Speed
WSPD
kts
5-day plot - Wind Gust
GST
kts
5-day plot - Wave Height
WVHT
ft
5-day plot - Dominant Wave Period
DPD
sec
5-day plot - Average Wave Period
APD
sec
5-day plot - Mean Wave Direction
MWD
 
5-day plot - Atmospheric Pressure
PRES
in
5-day plot - Pressure Tendency
PTDY
in
5-day plot - Air Temperature
ATMP
°F
5-day plot - Water Temperature
WTMP
°F
5-day plot - Dew Point
DEWP
°F
5-day plot - Salinity
SAL
psu
5-day plot - Visibility
VIS
nmi
5-day plot - Tide (above MLLW)
TIDE
ft
2026-08-31 08:50 pm SE 1.9-----30.09- 81.0-- 33.27--
2026-08-31 08:40 pm SE 1.9-----30.09- 81.0-- 33.31--
2026-08-31 08:30 pm SE 1.9- 1.6--ESE30.08- 81.0-- 33.33--
2026-08-31 08:20 pmESE 1.9- 1.6 8--30.08- 81.0-- 33.34--
2026-08-31 08:10 pmESE 1.9-----30.08- 81.0-- 33.28--
2026-08-31 08:00 pm SE 1.9-----30.08-0.01 81.1-- 33.34--
2026-08-31 07:50 pmESE 1.9-----30.08- 81.1-- 33.41--
2026-08-31 07:40 pmESE 3.9-----30.08- 81.3-- 33.51--
2026-08-31 05:00 pmESE 1.9-----30.09-0.02 82.4-- 33.61--
2026-08-31 04:50 pm E 1.9-----30.09- 82.6-- 33.61--
2026-08-31 04:40 pm E 1.9-----30.09- 82.4-- 33.60--
2026-08-31 04:30 pmENE 1.9- 1.6-- SE30.09- 82.2-- 33.56--
2026-08-31 04:20 pmNNE 1.9- 1.6 7--30.10- 81.9-- 33.58--
2026-08-31 04:10 pm NE 1.9-----30.09- 82.0-- 33.54--
2026-08-31 04:00 pm NE 1.9-----30.10-0.03 81.9-- 33.52--
2026-08-31 03:50 pmNNE 1.9-----30.10- 81.7-- 33.56--
2026-08-31 03:40 pmNNE 1.9-----30.10- 81.9-- 33.49--
2026-08-31 03:30 pmNNE 1.9- 1.6-- SE30.10- 82.0-- 33.45--
2026-08-31 03:20 pmNNE 1.9- 1.6 7--30.10- 82.4-- 33.44--
2026-08-31 03:10 pmNNE 1.9-----30.10- 82.2-- 33.46--
2026-08-31 03:00 pm NE 1.9-----30.10- 82.6-- 33.46--
2026-08-31 02:50 pmENE 1.9-----30.11- 82.4-- 33.47--
2026-08-31 02:40 pm NE 1.9-----30.11- 82.6-- 33.48--
2026-08-31 02:30 pm E 1.9- 1.6-- SE30.11- 81.7-- 33.49--
2026-08-31 02:20 pm E 1.9- 1.6 7--30.11- 81.5-- 33.50--
2026-08-31 02:10 pm E 1.9-----30.11- 81.3-- 33.54--
2026-08-31 02:00 pm E 3.9-----30.11- 81.1-- 33.54--
2026-08-31 01:50 pm NE 3.9-----30.12- 81.1-- 33.54--
2026-08-31 01:40 pm NE 3.9-----30.12- 81.3-- 33.54--
2026-08-31 01:30 pmENE 3.9- 1.6-- SE30.12- 81.1-- 33.55--
2026-08-31 01:20 pmENE 3.9- 1.6 7--30.13- 81.0-- 33.55--
2026-08-31 01:10 pm E 3.9-----30.12- 81.0-- 33.53--
2026-08-31 01:00 pm E 3.9-----30.12- 81.0-- 33.53--
2026-08-31 12:50 pm E 3.9-----30.13- 81.0-- 33.56--
2026-08-31 12:40 pm E 3.9-----30.13- 80.8-- 33.58--
2026-08-31 12:30 pmENE 5.8- 1.3-- SE30.13- 80.8-- 33.57--
2026-08-31 12:20 pmENE 5.8- 1.3 8--30.13- 80.8-- 33.60--
2026-08-31 12:10 pmENE 5.8-----30.14- 80.8-- 33.60--
2026-08-31 12:00 pm NE 5.8-----30.14- 80.8-- 33.61--
2026-08-31 11:50 am NE 5.8-----30.14- 80.8-- 33.66--
2026-08-31 11:40 am NE 5.8-----30.14- 80.6-- 33.68--
2026-08-31 11:30 am NE 5.8- 1.6--ESE30.14- 80.6-- 33.70--
2026-08-31 11:20 am NE 5.8- 1.6 8--30.14- 80.8-- 33.69--
2026-08-31 11:10 am NE 5.8-----30.14- 80.8-- 33.70--
2026-08-31 11:00 am NE 3.9-----30.14- 80.6-- 33.71--
2026-08-31 10:50 am NE 5.8-----30.14- 80.6-- 33.73--
2026-08-31 10:40 amNNE 5.8-----30.13- 80.6-- 33.71--
2026-08-31 10:30 amNNE 7.8- 1.6--ESE30.13- 80.6-- 33.73--
2026-08-31 10:20 am NE 7.8- 1.6 8--30.13- 80.6-- 33.80--
2026-08-31 10:10 amNNE 7.8-----30.13- 80.4-- 34.18--
2026-08-31 10:00 amNNE 7.8-----30.12- 80.4-- 34.26--
2026-08-31 09:50 amNNE 9.7-----30.12- 80.4-- 34.28--
2026-08-31 09:40 amNNE 7.8-----30.12- 80.4-- 34.29--
2026-08-31 09:30 amNNE 7.8- 1.6-- E30.12- 80.4-- 34.32--
2026-08-31 09:20 am N 5.8- 1.6 7--30.11- 80.4-- 34.35--
2026-08-31 09:10 amNNE 5.8-----30.11- 80.4-- 34.36--
2026-08-31 09:00 am N 5.8-----30.11- 80.6-- 34.38--
2026-08-31 08:50 am N 5.8-----30.11- 80.4-- 34.40--
2026-08-31 08:40 am N 5.8-----30.11- 80.4-- 34.42--
2026-08-31 08:30 am N 5.8- 2.0-- E30.11- 80.4-- 34.46--
2026-08-31 08:20 am N 5.8- 2.0 8--30.11- 80.2-- 34.48--
2026-08-31 08:10 am N 7.8-----30.11- 80.2-- 34.51--
2026-08-31 08:00 am N 7.8-----30.11- 80.2-- 34.53--
2026-08-31 07:50 am N 7.8-----30.11- 80.2-- 34.55--
2026-08-31 07:40 am N 7.8-----30.11- 80.2-- 34.53--
2026-08-31 07:30 amNNW 5.8- 1.6-- E30.10- 80.2-- 34.51--
2026-08-31 07:20 am N 5.8- 1.6 8--30.10- 80.2-- 34.50--
2026-08-31 07:10 am N 5.8-----30.10- 80.1-- 34.49--
2026-08-31 07:00 am N 7.8-----30.10- 80.1-- 34.44--
2026-08-31 06:50 am N 5.8-----30.10- 80.1-- 34.39--
2026-08-31 06:40 am N 7.8-----30.10- 80.1-- 34.37--
2026-08-31 06:30 amNNW 7.8- 1.6-- E30.10- 79.9-- 34.35--
2026-08-31 06:20 amNNW 7.8- 1.6 7--30.10- 79.9-- 34.37--
2026-08-31 06:10 amNNW 7.8-----30.10- 80.1-- 34.39--
2026-08-31 06:00 amNNW 7.8-----30.10- 79.9-- 34.41--
2026-08-31 05:50 amNNW 7.8-----30.09- 79.9-- 34.42--
2026-08-31 05:40 am N 7.8-----30.09- 79.9-- 34.45--
2026-08-31 05:30 amNNW 7.8- 2.0-- E30.09- 79.9-- 34.45--
2026-08-31 05:20 amNNW 7.8- 2.0 8--30.09- 79.9-- 34.46--
2026-08-31 05:10 amNNW 9.7-----30.09- 79.9-- 34.46--
2026-08-31 05:00 amNNW 9.7-----30.09- 80.1-- 34.47--
2026-08-31 04:50 amNNW 7.8-----30.09- 79.9-- 34.49--
2026-08-31 04:40 amNNW 7.8-----30.09- 79.9-- 34.49--
2026-08-31 04:30 am NW 5.8- 2.0-- E30.09- 79.9-- 34.47--
2026-08-31 04:20 amWNW 3.9- 2.0 8--30.09- 79.9-- 34.46--
2026-08-31 04:10 amWSW 3.9-----30.09- 79.9-- 34.46--
2026-08-31 04:00 amWSW 3.9-----30.09- 79.9-- 34.46--
2026-08-31 03:50 amWSW 3.9-----30.08- 79.9-- 34.50--
2026-08-31 03:40 amWSW 3.9-----30.09- 79.7-- 34.53--
2026-08-31 03:30 am W 3.9- 2.0--ESE30.09- 79.7-- 34.48--
2026-08-31 03:20 am W 3.9- 2.0 8--30.09- 79.7-- 34.46--
2026-08-31 03:10 am W 3.9-----30.10- 79.7-- 34.45--
2026-08-31 03:00 am W 3.9-----30.10- 79.7-- 34.40--
2026-08-31 02:50 amWSW 5.8-----30.10- 79.7-- 34.37--
2026-08-31 02:40 am W 3.9-----30.10- 79.9-- 34.34--
2026-08-31 02:30 am W 3.9- 2.0--ESE30.11- 79.9-- 34.32--
2026-08-31 02:20 am W 3.9- 2.0 8--30.11- 79.9-- 34.30--
2026-08-31 02:10 am W 3.9-----30.11- 79.9-- 34.29--
2026-08-31 02:00 am W 3.9-----30.11- 80.1-- 34.29--
2026-08-31 01:50 amWSW 3.9-----30.11- 80.1-- 34.28--
2026-08-31 01:40 am SW 3.9-----30.12- 79.9-- 34.28--
2026-08-31 01:30 am SW 3.9- 2.0--ESE30.12- 79.9-- 34.27--
2026-08-31 01:20 amWSW 3.9- 2.0 8--30.12- 79.9-- 34.27--
2026-08-31 01:10 am W 3.9-----30.12- 79.9-- 34.27--
2026-08-31 01:00 amWSW 3.9-----30.12- 79.9-- 34.27--
2026-08-31 12:50 amWSW 5.8-----30.12- 79.9-- 34.26--
2026-08-31 12:40 amWSW 3.9-----30.13- 79.9-- 34.25--
2026-08-31 12:30 amWSW 3.9- 2.0--ESE30.12- 79.9-- 34.25--
2026-08-31 12:20 amWSW 3.9- 2.0 8--30.12- 79.9-- 34.25--
2026-08-31 12:10 am SW 3.9-----30.12- 79.9-- 34.24--
2026-08-31 12:00 amWSW 3.9-----30.12- 79.7-- 34.24--
2026-08-30 11:50 pmWSW 3.9-----30.13- 79.7-- 34.24--
2026-08-30 11:40 pmWSW 3.9-----30.14- 79.9-- 34.23--
2026-08-30 11:30 pm W 3.9- 2.0--ESE30.14- 79.7-- 34.23--
2026-08-30 11:20 pmWSW 1.9- 2.0 8--30.14- 79.7-- 34.22--
2026-08-30 11:10 pmWSW 1.9-----30.13- 79.7-- 34.21--
2026-08-30 11:00 pm SW 1.9-----30.14- 79.7-- 34.21--
2026-08-30 10:50 pmSSW 1.9-----30.14- 79.9-- 34.20--
2026-08-30 10:40 pm SW 1.9-----30.14- 79.9-- 34.20--
2026-08-30 10:30 pmSSW 1.9- 2.0--ESE30.14- 79.9-- 34.19--
2026-08-30 10:20 pmSSW 3.9- 2.0 8--30.13- 79.9-- 34.18--
2026-08-30 10:10 pm S 3.9-----30.13- 79.9-- 34.18--
2026-08-30 10:00 pm S 3.9-----30.13- 79.9-- 34.18--
2026-08-30 09:50 pmSSE 5.8-----30.13- 79.9-- 34.17--

Wave Summary
for 41083 as of
(8:20 pm EDT on 08/31/2026)
0020 GMT on 09/01/2026:
Note: This report is more than two hours old

These wave data are displayed in rounded times.

     

Click on the graph icon in the table below to see a time series plot of the last five days of that observation.

5-day plot - Significant Wave Height Significant Wave Height (WVHT): 1.6 ft
Previous observations
TIME
(EDT)
5-day plot - Wave Height
WVHT
ft
5-day plot - Swell Height
SwH
ft
5-day plot - Swell Period
SwP
sec
5-day plot - Swell Direction
SwD
 
5-day plot - Wind Wave Height
WWH
ft
5-day plot - Wind Wave Period
WWP
sec
5-day plot - Wind Wave Direction
WWD
 
5-day plot - Wave Steepness
STEEPNESS
 
5-day plot - Average Wave Period
APD
sec
2026-08-31 07:20 pm 1.6------ N/A-
2026-08-31 06:20 pm 1.6------ N/A-
2026-08-31 05:20 pm 1.6------ N/A-
2026-08-31 04:20 pm 1.6------ N/A-
2026-08-31 03:20 pm 1.6------ N/A-
2026-08-31 02:20 pm 1.6------ N/A-
2026-08-31 01:20 pm 1.6------ N/A-
2026-08-31 12:20 pm 1.3------ N/A-
2026-08-31 11:20 am 1.6------ N/A-
2026-08-31 10:20 am 1.6------ N/A-
2026-08-31 09:20 am 1.6------ N/A-
2026-08-31 08:20 am 2.0------ N/A-
2026-08-31 07:20 am 1.6------ N/A-
2026-08-31 06:20 am 1.6------ N/A-
2026-08-31 05:20 am 2.0------ N/A-
2026-08-31 04:20 am 2.0------ N/A-
2026-08-31 03:20 am 2.0------ N/A-
2026-08-31 02:20 am 2.0------ N/A-
2026-08-31 01:20 am 2.0------ N/A-
2026-08-31 12:20 am 2.0------ N/A-
2026-08-30 11:20 pm 2.0------ N/A-
2026-08-30 10:20 pm 2.0------ N/A-

Ocean Conditions at 41083 as of
(9:00 pm EDT on 08/31/2026)
0100 GMT on 09/01/2026:

These oceanographic data are displayed in rounded times.

     

Click on the graph icon in the table below to see a time series plot of the last five days of that observation.

Depth (DEPTH): 3.0 ft
5-day plot - Salinity Salinity (SAL):33.27 psu
Previous observations
TIME
(EDT)
DEPTH
ft
5-day plot - Ocean Temperature
OTMP
°F
5-day plot - Conductivity
COND
mS/cm
5-day plot - Salinity
SAL
psu
5-day plot - Oxygen Saturation
O2%
%
5-day plot - Oxygen Concentration
O2PPM
ppm
5-day plot - Chlorophyll
CLCON
ug/l
5-day plot - Turbidity
TURB
FTU
5-day plot - pH
PH
 
5-day plot - Eh
EH
mV
2026-08-31 08:50 pm 3.0--33.31------
2026-08-31 08:40 pm 3.0--33.33------
2026-08-31 08:30 pm 3.0--33.34------
2026-08-31 08:20 pm 3.0--33.28------
2026-08-31 08:10 pm 3.0--33.34------
2026-08-31 08:00 pm 3.0--33.41------
2026-08-31 07:50 pm 3.0--33.51------
2026-08-31 07:40 pm 3.0--33.71------
2026-08-31 07:30 pm 3.0--33.75------
2026-08-31 07:20 pm 3.0--33.64------
2026-08-31 07:10 pm 3.0--33.83------
2026-08-31 07:00 pm 3.0--33.97------
2026-08-31 06:50 pm 3.0--34.03------
2026-08-31 06:40 pm 3.0--33.97------
2026-08-31 06:30 pm 3.0--33.92------
2026-08-31 06:20 pm 3.0--33.82------
2026-08-31 06:10 pm 3.0--33.76------
2026-08-31 06:00 pm 3.0--33.71------
2026-08-31 05:50 pm 3.0--33.68------
2026-08-31 05:40 pm 3.0--33.64------
2026-08-31 05:30 pm 3.0--33.60------
2026-08-31 05:20 pm 3.0--33.60------
2026-08-31 05:10 pm 3.0--33.61------
2026-08-31 05:00 pm 3.0--33.61------
2026-08-31 04:50 pm 3.0--33.60------
2026-08-31 04:40 pm 3.0--33.56------
2026-08-31 04:30 pm 3.0--33.58------
2026-08-31 04:20 pm 3.0--33.54------
2026-08-31 04:10 pm 3.0--33.52------
2026-08-31 04:00 pm 3.0--33.56------
2026-08-31 03:50 pm 3.0--33.49------
2026-08-31 03:40 pm 3.0--33.45------
2026-08-31 03:30 pm 3.0--33.44------
2026-08-31 03:20 pm 3.0--33.46------
2026-08-31 03:10 pm 3.0--33.46------
2026-08-31 03:00 pm 3.0--33.47------
2026-08-31 02:50 pm 3.0--33.48------
2026-08-31 02:40 pm 3.0--33.49------
2026-08-31 02:30 pm 3.0--33.50------
2026-08-31 02:20 pm 3.0--33.54------
2026-08-31 02:10 pm 3.0--33.54------
2026-08-31 02:00 pm 3.0--33.54------
2026-08-31 01:50 pm 3.0--33.54------
2026-08-31 01:40 pm 3.0--33.55------
2026-08-31 01:30 pm 3.0--33.55------
2026-08-31 01:20 pm 3.0--33.53------
2026-08-31 01:10 pm 3.0--33.53------
2026-08-31 01:00 pm 3.0--33.56------
2026-08-31 12:50 pm 3.0--33.58------
2026-08-31 12:40 pm 3.0--33.57------
2026-08-31 12:30 pm 3.0--33.60------
2026-08-31 12:20 pm 3.0--33.60------
2026-08-31 12:10 pm 3.0--33.61------
2026-08-31 12:00 pm 3.0--33.66------
2026-08-31 11:50 am 3.0--33.68------
2026-08-31 11:40 am 3.0--33.70------
2026-08-31 11:30 am 3.0--33.69------
2026-08-31 11:20 am 3.0--33.70------
2026-08-31 11:10 am 3.0--33.71------
2026-08-31 11:00 am 3.0--33.73------
2026-08-31 10:50 am 3.0--33.71------
2026-08-31 10:40 am 3.0--33.73------
2026-08-31 10:30 am 3.0--33.80------
2026-08-31 10:20 am 3.0--34.18------
2026-08-31 10:10 am 3.0--34.26------
2026-08-31 10:00 am 3.0--34.28------
2026-08-31 09:50 am 3.0--34.29------
2026-08-31 09:40 am 3.0--34.32------
2026-08-31 09:30 am 3.0--34.35------
2026-08-31 09:20 am 3.0--34.36------
2026-08-31 09:10 am 3.0--34.38------
2026-08-31 09:00 am 3.0--34.40------
2026-08-31 08:50 am 3.0--34.42------
2026-08-31 08:40 am 3.0--34.46------
2026-08-31 08:30 am 3.0--34.48------
2026-08-31 08:20 am 3.0--34.51------
2026-08-31 08:10 am 3.0--34.53------
2026-08-31 08:00 am 3.0--34.55------
2026-08-31 07:50 am 3.0--34.53------
2026-08-31 07:40 am 3.0--34.51------
2026-08-31 07:30 am 3.0--34.50------
2026-08-31 07:20 am 3.0--34.49------
2026-08-31 07:10 am 3.0--34.44------
2026-08-31 07:00 am 3.0--34.39------
2026-08-31 06:50 am 3.0--34.37------
2026-08-31 06:40 am 3.0--34.35------
2026-08-31 06:30 am 3.0--34.37------
2026-08-31 06:20 am 3.0--34.39------
2026-08-31 06:10 am 3.0--34.41------
2026-08-31 06:00 am 3.0--34.42------
2026-08-31 05:50 am 3.0--34.45------
2026-08-31 05:40 am 3.0--34.45------
2026-08-31 05:30 am 3.0--34.46------
2026-08-31 05:20 am 3.0--34.46------
2026-08-31 05:10 am 3.0--34.47------
2026-08-31 05:00 am 3.0--34.49------
2026-08-31 04:50 am 3.0--34.49------
2026-08-31 04:40 am 3.0--34.47------
2026-08-31 04:30 am 3.0--34.46------
2026-08-31 04:20 am 3.0--34.46------
2026-08-31 04:10 am 3.0--34.46------
2026-08-31 04:00 am 3.0--34.50------
2026-08-31 03:50 am 3.0--34.53------
2026-08-31 03:40 am 3.0--34.48------
2026-08-31 03:30 am 3.0--34.46------
2026-08-31 03:20 am 3.0--34.45------
2026-08-31 03:10 am 3.0--34.40------
2026-08-31 03:00 am 3.0--34.37------
2026-08-31 02:50 am 3.0--34.34------
2026-08-31 02:40 am 3.0--34.32------
2026-08-31 02:30 am 3.0--34.30------
2026-08-31 02:20 am 3.0--34.29------
2026-08-31 02:10 am 3.0--34.29------
2026-08-31 02:00 am 3.0--34.28------
2026-08-31 01:50 am 3.0--34.28------
2026-08-31 01:40 am 3.0--34.27------
2026-08-31 01:30 am 3.0--34.27------
2026-08-31 01:20 am 3.0--34.27------
2026-08-31 01:10 am 3.0--34.27------
2026-08-31 01:00 am 3.0--34.26------
2026-08-31 12:50 am 3.0--34.25------
2026-08-31 12:40 am 3.0--34.25------
2026-08-31 12:30 am 3.0--34.25------
2026-08-31 12:20 am 3.0--34.24------
2026-08-31 12:10 am 3.0--34.24------
2026-08-31 12:00 am 3.0--34.24------
2026-08-30 11:50 pm 3.0--34.23------
2026-08-30 11:40 pm 3.0--34.23------
2026-08-30 11:30 pm 3.0--34.22------
2026-08-30 11:20 pm 3.0--34.21------
2026-08-30 11:10 pm 3.0--34.21------
2026-08-30 11:00 pm 3.0--34.20------
2026-08-30 10:50 pm 3.0--34.20------
2026-08-30 10:40 pm 3.0--34.19------
2026-08-30 10:30 pm 3.0--34.18------
2026-08-30 10:20 pm 3.0--34.18------
2026-08-30 10:10 pm 3.0--34.18------
2026-08-30 10:00 pm 3.0--34.17------
2026-08-30 09:50 pm 3.0--34.18------

Solar Radiation Conditions at 41083 as of
(9:00 pm EDT on 08/31/2026)
0100 GMT on 09/01/2026:
     

Click on the graph icon in the table below to see a time series plot of the last five days of that observation.

5-day plot - Short Wave Radiation 1 Short Wave Radiation 1 (SRAD1): 1.5watts/meter2
5-day plot - Long Wave Radiation Long Wave Radiation (LWRAD): 399.2watts/meter2
Previous observations
TIME
(EDT)
5-day plot - Short Wave Radiation 1
SRAD1
w/m2
5-day plot - Short Wave Radiation 2
SRAD2
w/m2
5-day plot - Long Wave Radiation
LRAD
w/m2
2026-08-31 08:50 pm 1.7- 398.8
2026-08-31 08:40 pm 1.8- 397.8
2026-08-31 08:30 pm 1.3- 396.3
2026-08-31 08:20 pm 1.0- 394.4
2026-08-31 08:10 pm 0.7- 393.7
2026-08-31 08:00 pm 0.3- 393.3
2026-08-31 07:50 pm 0.0- 392.2
2026-08-31 07:40 pm -0.6- 392.1
2026-08-31 07:30 pm -0.4- 390.7
2026-08-31 07:20 pm 3.5- 389.8
2026-08-31 07:10 pm 13.3- 389.5
2026-08-31 07:00 pm 29.7- 389.9
2026-08-31 06:50 pm 39.9- 390.1
2026-08-31 06:40 pm 81.6- 390.4
2026-08-31 06:30 pm 113.6- 390.7
2026-08-31 06:20 pm 146.7- 390.7
2026-08-31 06:10 pm 183.6- 390.5
2026-08-31 06:00 pm 220.8- 390.6
2026-08-31 05:50 pm 256.7- 392.6
2026-08-31 05:40 pm 287.1- 391.7
2026-08-31 05:30 pm 322.4- 391.2
2026-08-31 05:20 pm 350.3- 390.9
2026-08-31 05:10 pm 388.8- 390.7
2026-08-31 05:00 pm 426.6- 388.6
2026-08-31 04:50 pm 457.4- 389.7
2026-08-31 04:40 pm 492.9- 388.6
2026-08-31 04:30 pm 529.8- 388.6
2026-08-31 04:20 pm 567.2- 389.4
2026-08-31 04:10 pm 598.2- 388.0
2026-08-31 04:00 pm 623.3- 389.5
2026-08-31 03:50 pm 665.9- 387.1
2026-08-31 03:40 pm 694.8- 386.7
2026-08-31 03:30 pm 713.9- 389.2
2026-08-31 03:20 pm 743.4- 388.3
2026-08-31 03:10 pm 769.7- 388.0
2026-08-31 03:00 pm 780.6- 389.1
2026-08-31 02:50 pm 810.0- 389.1
2026-08-31 02:40 pm 817.2- 389.8
2026-08-31 02:30 pm 832.9- 389.3
2026-08-31 02:20 pm 861.9- 390.2
2026-08-31 02:10 pm 879.3- 390.0
2026-08-31 02:00 pm 894.0- 389.9
2026-08-31 01:50 pm 905.4- 389.1
2026-08-31 01:40 pm 904.3- 391.1
2026-08-31 01:30 pm 897.7- 392.6
2026-08-31 01:20 pm 906.6- 393.2
2026-08-31 01:10 pm 904.9- 393.7
2026-08-31 01:00 pm 915.7- 393.8
2026-08-31 12:50 pm 913.1- 393.9
2026-08-31 12:40 pm 912.0- 395.1
2026-08-31 12:30 pm 915.2- 394.6
2026-08-31 12:20 pm 901.3- 396.1
2026-08-31 12:10 pm 871.9- 398.4
2026-08-31 12:00 pm 832.8- 402.5
2026-08-31 11:50 am 902.7- 401.3
2026-08-31 11:40 am 820.6- 400.8
2026-08-31 11:30 am 807.3- 398.9
2026-08-31 11:20 am 842.7- 396.4
2026-08-31 11:10 am 820.6- 396.1
2026-08-31 11:00 am 795.7- 396.6
2026-08-31 10:50 am 777.3- 396.1
2026-08-31 10:40 am 755.5- 395.9
2026-08-31 10:30 am 736.6- 396.8
2026-08-31 10:20 am 727.8- 398.9
2026-08-31 10:10 am 700.5- 398.4
2026-08-31 10:00 am 672.1- 399.8
2026-08-31 09:50 am 491.3- 414.2
2026-08-31 09:40 am 376.6- 408.9
2026-08-31 09:30 am 489.3- 419.7
2026-08-31 09:20 am 485.0- 408.7
2026-08-31 09:10 am 518.6- 399.9
2026-08-31 09:00 am 477.7- 395.7
2026-08-31 08:50 am 432.9- 394.7
2026-08-31 08:40 am 419.1- 396.0
2026-08-31 08:30 am 389.1- 401.4
2026-08-31 08:20 am 348.6- 401.8
2026-08-31 08:10 am 227.6- 403.7
2026-08-31 08:00 am 161.0- 402.1
2026-08-31 07:50 am 248.4- 406.0
2026-08-31 07:40 am 161.9- 400.5
2026-08-31 07:30 am 192.0- 399.1
2026-08-31 07:20 am 157.6- 398.7
2026-08-31 07:10 am 120.6- 399.3
2026-08-31 07:00 am 82.6- 399.5
2026-08-31 06:50 am 52.7- 399.8
2026-08-31 06:40 am 20.6- 400.1
2026-08-31 06:30 am 7.8- 400.6
2026-08-31 06:20 am 4.2- 402.2
2026-08-31 06:10 am 3.2- 404.1
2026-08-31 06:00 am 2.9- 402.5
2026-08-31 05:50 am 2.9- 402.6
2026-08-31 05:40 am 2.8- 402.4
2026-08-31 05:30 am 2.8- 402.4
2026-08-31 05:20 am 2.9- 402.7
2026-08-31 05:10 am 3.0- 402.8
2026-08-31 05:00 am 3.1- 403.7
2026-08-31 04:50 am 3.1- 403.9
2026-08-31 04:40 am 2.9- 403.1
2026-08-31 04:30 am 2.8- 402.5
2026-08-31 04:20 am 2.7- 401.9
2026-08-31 04:10 am 2.7- 401.1
2026-08-31 04:00 am 2.5- 400.1
2026-08-31 03:50 am 2.6- 399.8
2026-08-31 03:40 am 2.7- 400.1
2026-08-31 03:30 am 2.5- 400.6
2026-08-31 03:20 am 2.5- 400.8
2026-08-31 03:10 am 2.4- 402.1
2026-08-31 03:00 am 2.5- 403.8
2026-08-31 02:50 am 2.7- 407.0
2026-08-31 02:40 am 2.6- 404.1
2026-08-31 02:30 am 2.6- 402.2
2026-08-31 02:20 am 2.6- 401.8
2026-08-31 02:10 am 2.6- 401.9
2026-08-31 02:00 am 2.6- 401.5
2026-08-31 01:50 am 2.6- 401.1
2026-08-31 01:40 am 2.6- 401.7
2026-08-31 01:30 am 2.5- 402.8
2026-08-31 01:20 am 2.5- 403.5
2026-08-31 01:10 am 2.6- 405.4
2026-08-31 01:00 am 2.7- 406.0
2026-08-31 12:50 am 2.8- 407.0
2026-08-31 12:40 am 2.8- 408.7
2026-08-31 12:30 am 2.8- 409.4
2026-08-31 12:20 am 2.9- 409.8
2026-08-31 12:10 am 2.8- 409.6
2026-08-31 12:00 am 2.8- 409.6
2026-08-30 11:50 pm 2.8- 411.0
2026-08-30 11:40 pm 3.0- 414.1
2026-08-30 11:30 pm 2.9- 415.4
2026-08-30 11:20 pm 2.7- 414.9
2026-08-30 11:10 pm 2.6- 414.3
2026-08-30 11:00 pm 2.5- 413.2
2026-08-30 10:50 pm 2.6- 411.8
2026-08-30 10:40 pm 2.7- 411.7
2026-08-30 10:30 pm 2.6- 411.6
2026-08-30 10:20 pm 2.8- 410.0
2026-08-30 10:10 pm 2.9- 409.3
2026-08-30 10:00 pm 2.7- 407.7
2026-08-30 09:50 pm 2.7- 405.8